Wind_Speed
15 16 16 17 19 20 20 19 18 16 15 15 15 15 15 14 15 15 16 16 16 16 16 17 17 18 18 18 18 18 17 17 16 16 16 16 16 17 17 17 17 17 18 18 18 18 18 19 19 19 19 20 20 20 21 21 21 22 22 22 23 23 23 23 23 23 23 23 23 23 23 23 24 24 24 24 24 25 25 25 26 26 26 26 27 27
14 15 15 16 18 19 18 17 17 16 14 14 14 15 15 15 15 15 16 16 16 16 17 17 18 18 18 18 18 18 17 17 16 17 17 18 18 19 19 19 19 19 19 19 19 19 19 19 19 19 20 20 20 21 21 21 21 22 22 22 23 23 23 23 23 23 23 23 23 24 24 24 24 24 24 24 25 25 25 25 26 26 26 27 27 27
14 14 16 16 17 17 15 14 15 15 14 14 14 15 15 15 16 16 16 16 16 16 16 17 17 18 18 18 18 17 17 17 17 18 18 19 20 20 20 20 20 20 19 19 19 18 18 18 18 19 19 19 20 20 20 21 21 21 22 22 22 22 22 22 23 23 23 23 23 24 24 24 24 24 24 25 25 25 25 26 26 26 26 27 27 27
15 13 16 16 16 16 15 13 13 13 14 14 14 15 16 16 16 16 16 16 16 16 16 16 17 17 17 17 17 17 17 17 18 18 19 20 20 21 20 20 20 19 18 17 17 17 17 17 17 17 18 18 18 19 19 20 20 20 21 21 21 22 22 22 22 23 23 23 23 24 24 24 24 25 25 25 25 25 25 25 26 26 26 26 27 27
15 14 15 15 15 14 14 13 13 12 13 13 13 14 15 15 16 16 16 16 15 15 15 15 16 16 16 16 17 17 17 17 18 19 19 20 20 19 19 18 17 16 16 15 15 15 15 15 16 16 17 18 18 19 19 20 20 20 21 21 21 22 22 22 23 23 23 23 24 24 24 25 25 25 25 25 25 25 25 25 25 26 26 26 26 27
14 14 14 13 13 12 12 12 12 11 11 11 12 12 13 14 15 15 15 15 15 15 15 14 14 15 15 16 16 17 17 18 18 18 18 18 17 16 16 15 14 14 14 14 14 14 15 16 16 17 18 19 19 20 20 21 21 21 22 22 22 23 23 23 23 23 24 24 24 24 25 25 25 25 25 25 25 25 25 25 25 25 25 26 26 26
12 14 13 12 11 11 10 10 10 9 9 9 10 11 12 13 14 14 14 14 14 14 14 14 14 15 15 16 17 17 17 17 17 16 16 15 14 13 13 12 13 13 13 14 14 15 16 17 18 19 20 20 21 21 22 22 22 22 22 23 23 23 23 24 24 24 24 24 24 25 25 25 25 25 25 25 25 24 24 25 25 25 25 26 26 26
9 11 10 10 9 9 9 8 8 8 8 8 8 9 11 12 13 14 14 13 13 13 13 14 15 15 16 16 17 17 16 16 14 13 13 12 11 11 11 12 12 13 14 15 17 18 19 20 21 22 22 22 22 22 22 22 22 22 22 22 22 22 23 23 23 23 23 24 24 24 24 24 24 24 24 24 24 24 24 24 25 25 25 26 26 27
8 8 8 8 7 7 7 7 7 7 7 8 9 10 11 12 13 13 12 12 12 12 13 14 16 17 17 17 17 16 15 13 12 11 10 10 10 11 12 13 14 16 17 18 19 20 21 22 22 22 22 21 21 21 20 20 20 20 21 21 21 21 21 21 22 22 22 22 22 22 22 23 23 23 23 23 23 24 24 24 25 25 26 26 27 27
7 7 7 7 7 7 7 6 6 7 7 8 9 10 11 11 11 11 11 11 11 12 13 15 16 18 19 19 17 16 13 10 9 8 9 10 11 12 14 16 18 19 19 20 20 21 21 21 20 20 19 19 18 18 18 19 19 19 19 19 20 20 20 20 20 21 21 21 21 21 22 22 22 22 23 23 23 24 24 25 25 26 26 27 27 28
5 6 6 6 6 7 7 6 6 6 7 8 8 9 9 9 9 10 11 12 13 13 13 15 16 17 19 19 18 15 12 9 8 8 9 11 13 15 17 19 20 20 21 21 21 20 20 20 19 18 17 17 17 17 17 18 18 18 19 19 19 19 19 20 20 20 20 21 21 21 22 22 22 23 23 24 24 24 25 25 26 26 27 28 28 29
4 4 5 5 5 5 5 6 6 6 7 7 7 6 6 7 8 9 11 13 14 15 15 15 16 17 18 18 17 14 11 10 10 11 12 14 16 18 20 21 21 21 21 21 21 20 20 19 18 18 17 17 17 17 17 18 19 19 19 19 19 19 19 20 20 20 21 21 21 22 22 23 23 23 24 24 25 25 26 26 27 27 28 28 28 29
4 4 5 5 5 5 5 4 5 5 6 6 5 5 6 7 8 9 10 12 13 15 16 16 17 17 18 16 13 11 10 11 12 15 17 19 21 22 23 23 23 23 23 23 23 22 21 20 19 18 18 18 18 19 19 19 19 19 19 20 20 20 20 21 21 21 22 22 22 23 23 24 24 24 25 25 26 26 26 27 27 27 28 28 28 29
5 5 5 5 5 5 4 4 4 4 5 5 6 6 7 8 8 9 10 12 13 14 15 16 17 18 17 14 11 9 10 11 14 18 21 22 23 23 23 23 23 23 24 24 24 23 21 21 20 20 19 20 20 20 21 21 21 21 21 21 21 21 22 22 22 23 23 23 24 24 24 24 25 25 25 26 26 26 27 27 27 27 28 28 28 29
5 5 5 5 4 4 4 4 5 5 6 6 7 7 8 8 8 9 10 11 12 13 14 15 16 16 15 11 9 8 9 12 15 19 22 23 23 22 22 22 23 23 24 24 24 23 22 21 21 21 21 22 22 22 22 21 21 21 22 22 22 23 23 23 23 24 24 24 24 24 24 25 25 25 25 26 26 26 26 27 27 27 28 28 28 28
6 6 5 5 5 4 5 5 6 6 7 7 7 8 8 8 8 9 9 11 12 12 12 14 14 14 12 10 9 8 9 12 15 18 21 23 23 22 22 22 22 23 23 23 23 23 23 22 22 22 23 23 23 22 22 22 22 22 23 23 23 23 23 23 24 24 24 24 24 24 24 24 24 25 25 26 26 26 26 26 27 27 27 28 28 28
6 6 6 5 5 5 6 6 7 7 7 8 8 8 8 8 8 9 10 10 11 11 10 10 9 8 9 11 11 9 11 13 16 18 20 22 23 23 21 21 21 22 23 23 23 23 23 22 22 23 23 23 23 23 23 23 23 23 23 23 23 23 23 23 23 23 24 24 24 24 24 24 24 25 25 25 25 26 26 26 27 27 27 28 28 29
7 7 6 6 6 6 7 7 7 7 8 8 8 8 8 9 9 10 10 10 10 10 10 10 9 8 8 11 10 10 13 16 17 18 19 21 22 22 21 20 21 22 23 23 23 23 23 23 23 23 23 23 23 23 23 23 23 23 23 23 23 23 23 23 23 23 23 24 24 24 24 24 24 25 25 25 25 26 26 26 27 27 28 28 28 29
9 8 8 8 8 7 7 7 7 7 7 7 8 9 9 10 10 10 11 11 10 10 10 10 10 11 11 13 14 15 15 17 18 18 18 20 21 22 21 20 20 21 22 23 23 23 23 23 23 24 24 24 24 24 23 23 23 23 23 23 23 23 23 23 23 23 23 23 24 24 24 24 24 25 25 25 26 26 26 27 27 28 28 29 29 30
9 9 9 9 8 8 8 7 7 7 7 8 9 10 11 11 11 11 11 11 11 11 11 11 12 13 14 15 16 17 16 17 17 17 18 19 21 21 20 19 19 20 22 23 23 23 23 23 24 25 25 25 24 24 23 23 23 23 23 23 23 23 23 23 23 23 23 23 24 24 24 24 25 25 26 26 26 27 27 28 28 29 29 30 30 31
7 8 7 7 6 7 7 8 8 8 9 10 11 11 12 12 11 11 11 12 12 12 12 12 13 14 15 16 17 17 18 17 16 16 16 18 20 20 19 18 19 20 22 23 23 23 22 23 24 25 25 25 24 23 23 23 23 23 23 22 22 22 22 23 23 23 24 24 24 24 25 25 25 26 26 27 27 28 28 29 29 30 30 31 31 31
5 6 6 6 7 7 8 9 10 10 11 11 12 12 12 11 11 12 12 12 12 13 13 13 15 16 17 17 18 18 17 16 15 14 15 16 18 19 18 17 18 20 22 23 23 23 23 23 24 25 25 24 23 23 23 23 23 23 22 22 22 22 23 23 23 24 24 25 25 25 26 26 26 27 27 28 28 29 29 30 30 31 31 31 32 32
8 8 8 9 9 10 11 12 12 12 11 11 12 12 11 11 12 12 13 13 13 14 15 16 17 18 18 18 18 17 15 14 13 13 13 12 15 18 18 18 19 20 21 22 23 23 24 24 24 24 24 24 24 23 23 23 22 22 22 22 23 23 23 24 24 25 25 25 26 26 27 27 27 28 28 29 29 30 30 31 31 31 32 32 32 33
9 10 10 10 11 11 12 12 12 11 10 10 10 10 9 10 11 12 13 13 14 14 15 16 17 17 16 16 15 14 13 12 12 12 12 12 15 18 18 18 19 20 21 22 23 23 24 24 24 24 24 24 24 23 23 22 22 22 22 22 23 23 24 24 25 25 26 26 27 27 27 28 28 29 29 30 30 31 31 31 32 32 32 33 33 33
9 10 10 10 11 11 11 11 11 10 9 9 8 8 8 9 10 11 12 13 13 14 15 15 15 15 16 15 14 13 13 11 11 12 12 12 15 18 18 18 18 19 21 23 23 23 24 24 24 24 24 24 24 23 22 22 21 21 21 22 23 23 24 25 25 26 26 27 27 28 28 29 29 30 30 30 31 31 31 32 32 32 33 33 34 34
9 9 10 10 10 10 10 9 9 8 7 8 8 8 9 10 11 13 13 13 13 13 14 14 14 15 15 14 13 13 12 11 11 12 12 13 15 17 18 17 17 19 21 23 23 23 23 24 24 24 23 23 23 22 22 21 21 21 21 22 23 24 25 25 26 26 27 27 28 28 29 29 29 30 30 30 31 31 31 32 32 32 33 34 34 35
10 10 9 9 8 7 7 7 6 6 6 7 8 8 10 11 13 13 13 13 13 12 12 12 12 13 14 13 12 12 12 12 12 12 13 14 15 16 17 17 17 18 21 22 23 23 23 23 23 23 23 23 22 22 21 21 21 22 23 24 24 25 25 26 26 27 27 28 28 28 29 29 29 30 30 30 31 31 31 31 32 32 33 33 33 33
13 12 10 9 8 8 8 8 8 8 8 8 9 9 11 12 13 13 14 14 13 12 12 11 11 10 11 11 13 14 14 14 13 12 12 12 12 13 16 17 17 18 19 22 23 23 22 21 21 21 21 21 21 21 22 22 23 24 24 25 25 25 26 26 26 27 27 28 28 28 29 29 29 29 30 30 30 31 31 31 32 32 33 32 32 32
13 11 11 10 10 10 11 11 11 12 12 12 11 11 12 13 14 15 15 15 14 13 12 12 12 11 11 13 15 15 15 13 10 9 9 10 11 13 16 16 16 17 18 20 23 23 20 18 17 17 18 19 21 22 24 25 25 26 26 26 26 26 26 26 26 27 27 28 28 28 28 29 29 29 30 30 30 31 31 31 31 31 31 31 30 30
10 10 10 10 11 12 13 13 14 14 14 13 13 13 14 14 15 15 15 14 12 12 12 12 12 12 12 13 13 12 10 8 6 6 9 10 12 14 15 15 16 16 16 17 16 15 16 17 16 15 17 20 22 24 26 26 26 26 26 27 27 26 26 26 26 26 27 28 28 28 28 29 29 29 30 30 30 30 31 31 30 30 29 29 29 30
9 9 9 10 10 11 12 12 13 13 13 13 13 13 13 14 14 13 13 12 11 11 11 11 11 11 11 9 7 4 5 7 7 7 10 12 13 14 15 15 16 16 14 13 8 6 10 15 18 18 19 22 24 25 26 26 26 26 26 27 27 27 27 26 26 27 27 28 28 28 29 29 29 29 30 30 30 30 30 30 30 29 29 29 30 30
10 9 9 10 10 11 12 12 13 14 14 14 14 13 12 12 12 12 11 11 11 11 11 11 11 11 11 10 8 6 8 11 11 10 11 12 14 15 15 15 15 16 15 13 10 8 7 10 17 24 24 24 25 25 26 25 25 26 26 27 27 28 28 27 27 27 28 28 28 29 29 29 29 29 29 29 30 30 30 30 29 28 28 28 29 30
11 11 10 10 11 12 13 14 15 15 15 14 13 12 12 11 11 11 11 11 11 11 11 12 12 12 12 12 13 13 15 15 14 12 12 13 14 15 15 15 16 16 16 15 14 13 12 13 19 25 26 25 24 24 25 25 25 25 26 26 27 28 29 28 28 28 29 29 29 29 29 29 29 29 29 29 29 29 29 29 28 28 28 28 29 30
12 11 11 12 12 13 14 15 16 16 14 13 12 11 11 11 10 10 10 11 11 12 13 13 13 13 13 13 14 15 16 15 14 13 13 14 14 15 16 16 16 16 16 16 16 16 16 19 20 22 23 25 25 24 24 24 25 25 25 26 27 28 29 29 29 29 29 29 29 29 29 29 29 29 29 29 29 29 29 29 29 29 28 28 29 30
13 13 13 13 14 15 17 17 16 14 12 11 10 10 10 10 10 10 10 11 12 13 14 14 15 15 14 14 15 15 15 16 16 15 15 16 16 16 16 16 15 16 16 16 16 16 16 19 20 21 21 24 25 25 24 23 24 24 25 25 26 27 28 28 28 29 29 29 29 29 29 29 29 29 29 29 29 29 29 30 30 31 31 31 31 31
13 13 14 14 16 17 17 16 14 12 10 9 9 9 9 9 10 10 11 11 12 12 13 13 13 14 15 16 17 17 18 19 18 17 17 17 18 17 16 16 16 16 16 17 17 17 17 19 21 22 21 21 22 24 25 25 24 25 25 25 25 26 27 27 28 28 28 28 28 29 29 29 29 29 29 29 29 30 31 32 32 32 32 32 32 33
12 13 14 15 16 16 15 14 12 10 10 9 9 9 9 10 10 11 11 11 11 11 11 11 11 12 13 14 16 18 19 19 18 17 17 17 18 18 18 17 17 17 16 17 17 18 18 18 20 21 20 19 19 21 24 26 26 26 25 25 25 26 27 27 27 27 27 27 28 28 29 29 29 29 30 30 30 31 31 31 31 31 32 32 33 33
13 15 16 16 16 15 14 13 11 11 10 10 10 10 10 11 11 12 12 12 12 11 11 11 11 12 12 13 15 16 17 17 17 16 16 16 17 19 19 19 19 18 18 18 19 19 18 17 15 14 17 20 22 23 25 26 27 27 27 27 26 26 26 26 26 26 26 27 28 29 29 29 29 30 30 30 30 30 30 31 31 31 31 31 32 33
16 17 18 17 17 15 14 13 12 11 11 11 11 11 12 12 13 13 13 12 12 11 11 12 12 13 13 14 14 15 15 15 15 14 14 15 16 17 19 20 19 19 20 19 19 19 19 17 16 15 16 19 23 25 26 26 26 27 28 29 28 26 25 24 24 25 26 27 28 29 29 29 29 29 29 29 29 30 30 31 31 31 30 31 32 33
18 18 18 18 16 15 13 12 11 11 11 11 12 12 12 13 13 13 13 12 11 11 11 12 13 14 14 14 14 14 14 13 13 13 13 14 15 16 18 20 20 20 21 20 20 19 19 19 19 20 20 20 22 24 26 26 27 27 28 27 26 26 26 25 25 26 27 27 27 28 29 29 29 29 29 29 29 29 30 30 30 31 31 31 31 32
18 18 19 17 15 13 12 11 11 11 11 12 12 12 12 13 13 13 13 12 11 11 11 12 13 15 15 14 14 13 13 13 13 13 13 13 14 15 17 19 20 21 21 21 20 20 19 19 20 21 22 23 24 25 26 27 27 27 27 25 26 28 29 28 27 26 26 26 27 27 28 29 29 30 29 29 30 30 30 30 31 32 32 31 30 31
18 18 17 15 13 11 10 10 10 11 12 12 12 12 12 13 13 13 13 13 13 12 12 13 15 16 17 16 15 13 13 13 13 13 13 13 14 15 16 18 19 20 20 20 20 20 19 19 20 21 22 23 24 25 26 28 28 27 25 25 27 29 29 28 26 25 24 26 27 28 28 29 29 30 30 30 31 31 31 31 32 32 32 31 31 32
18 17 14 12 11 10 10 10 11 11 11 11 11 12 12 12 12 13 13 13 14 14 14 14 15 16 15 15 15 14 13 13 12 12 13 13 14 15 16 17 18 18 19 19 19 19 19 20 21 22 23 23 23 24 25 27 28 28 26 26 26 25 23 26 27 27 26 27 28 28 28 28 29 30 30 31 31 32 31 32 32 32 32 32 32 33
15 13 11 10 10 10 10 10 11 11 11 11 11 12 13 12 12 12 12 13 13 14 14 15 15 14 14 13 14 14 14 13 13 12 13 13 14 15 15 16 17 17 17 18 19 19 21 22 22 23 23 23 23 24 25 26 27 27 27 26 25 23 23 26 29 30 29 29 29 28 28 28 29 31 32 32 33 32 32 32 32 32 33 32 33 33
12 11 10 9 9 10 10 10 10 10 10 11 11 12 13 12 12 11 12 13 13 14 14 14 13 12 12 12 13 14 14 14 14 13 13 14 14 14 15 16 16 17 18 19 20 20 21 22 23 24 24 23 23 24 25 26 27 27 27 26 25 25 27 29 29 29 29 29 30 29 29 28 29 31 32 33 33 32 32 32 32 32 33 33 33 34
10 10 10 10 10 10 10 10 10 10 10 11 12 13 13 12 11 11 11 12 13 14 14 13 12 11 11 12 13 14 15 15 15 15 15 15 15 15 15 16 17 18 19 20 22 23 23 23 23 24 25 24 24 24 25 25 25 26 26 26 26 26 28 28 29 28 28 28 29 30 30 29 30 30 31 32 33 34 33 32 31 32 33 33 34 34
10 10 11 11 11 11 11 10 10 10 10 11 12 13 13 12 11 11 11 12 13 14 13 12 11 11 11 12 13 14 15 16 16 17 16 17 17 17 17 17 18 19 20 21 23 23 23 24 24 24 24 23 23 24 25 25 24 24 25 26 27 27 28 29 29 29 28 28 29 30 31 30 30 30 30 32 33 34 34 33 32 32 32 32 33 34
12 11 11 11 11 10 10 9 9 9 10 11 12 12 13 12 11 12 12 12 13 13 13 12 11 12 12 13 13 14 14 15 16 17 18 18 18 18 18 19 20 21 21 22 22 23 23 23 24 24 24 23 23 23 25 26 25 25 25 26 27 27 28 29 30 29 28 28 28 29 29 29 29 29 31 32 32 33 34 34 34 33 33 32 33 34
12 11 11 10 10 9 9 8 8 9 10 10 11 12 12 11 11 11 12 12 13 13 12 12 12 12 13 13 14 14 15 16 17 17 18 18 19 19 19 20 21 22 22 22 22 21 21 21 21 21 21 22 23 25 26 27 27 26 26 26 26 26 27 29 30 30 29 28 29 29 29 28 28 28 29 30 31 32 35 36 36 36 34 33 33 33
12 11 10 9 9 9 8 8 8 9 9 10 10 10 11 11 11 11 12 12 13 13 12 12 12 13 13 14 14 15 15 16 16 17 18 18 19 19 20 21 21 22 22 22 21 20 20 19 19 18 17 18 20 23 25 26 27 27 26 26 26 26 27 29 30 30 29 29 29 29 29 29 28 27 26 27 29 31 34 36 37 37 36 35 34 34
11 10 9 9 9 9 8 8 9 9 10 10 10 10 10 11 11 12 12 12 13 13 13 13 12 13 13 14 15 15 15 16 16 17 18 19 19 19 19 19 20 20 21 20 20 19 18 17 16 17 18 16 16 17 21 23 25 26 26 27 27 26 26 28 29 30 30 30 30 29 29 29 28 27 26 26 27 29 30 33 36 38 38 37 36 35
Wind_Direction
201 204 205 204 203 204 207 213 218 224 232 239 244 250 257 262 266 270 274 277 280 282 284 285 286 288 290 292 293 295 296 296 295 294 294 293 292 292 291 291 290 289 288 287 286 286 286 285 285 285 285 284 283 283 283 282 282 282 281 281 281 280 280 280 279 279 279 279 279 279 279 280 280 280 280 280 279 278 278 277 276 275 275 274 274 274
194 196 197 198 200 202 207 214 220 225 233 240 246 251 257 261 266 269 272 275 278 281 283 285 286 288 289 291 293 293 294 294 294 293 293 292 291 290 290 288 288 287 286 285 285 285 285 285 286 286 285 285 284 283 283 282 282 282 282 281 281 281 280 280 279 279 279 279 279 280 280 281 281 281 281 280 279 279 278 277 276 276 275 275 274 274
184 188 191 195 198 201 206 214 222 228 234 241 248 253 258 263 266 270 272 274 277 280 282 285 286 287 288 290 291 292 293 293 293 293 293 292 291 290 289 288 287 286 286 286 286 286 287 287 287 288 287 287 286 285 285 284 283 283 282 282 282 281 281 280 280 280 280 280 280 280 280 281 281 281 281 280 280 279 278 278 277 276 276 275 275 274
180 183 190 194 198 202 207 214 223 231 237 243 250 256 261 265 269 271 273 275 278 281 283 284 286 287 288 289 290 291 292 294 294 294 293 292 290 289 288 288 287 288 289 288 288 289 290 291 291 291 290 289 288 288 287 286 285 284 284 283 283 283 282 282 281 281 281 281 281 281 281 281 281 281 281 280 280 279 279 278 277 277 276 276 275 275
180 184 190 194 200 206 212 219 227 234 242 248 254 259 264 267 269 272 275 277 281 284 285 286 286 287 288 289 290 291 293 295 295 295 293 291 289 288 288 287 288 289 290 290 290 292 293 293 293 293 292 291 290 289 288 287 287 286 285 285 284 284 283 283 282 282 281 281 281 281 281 281 281 281 281 280 280 279 279 278 278 277 277 276 276 276
181 187 192 196 202 210 218 225 232 238 243 249 254 259 264 267 270 274 279 283 286 287 288 287 287 287 288 290 292 294 296 297 296 295 292 290 288 287 286 286 287 289 290 291 292 293 294 294 294 293 293 292 291 290 289 288 287 286 286 285 284 284 283 282 282 282 282 282 282 282 281 281 281 281 280 280 280 279 279 279 278 278 278 277 277 276
183 189 195 201 208 215 222 229 234 238 241 248 254 259 263 268 274 279 285 288 290 290 289 289 288 288 289 291 294 298 300 300 297 294 291 288 286 285 285 285 286 288 290 291 292 292 292 292 292 292 291 291 290 289 288 287 286 286 285 285 284 283 283 283 283 283 282 282 282 282 282 281 281 280 280 280 279 279 279 279 278 278 278 278 277 277
176 187 196 203 212 219 223 226 229 233 239 247 257 266 272 277 282 287 289 290 291 291 291 291 290 291 292 295 299 303 305 303 299 294 291 289 288 288 289 289 290 291 292 291 291 291 291 290 290 291 290 289 288 288 287 287 286 286 285 285 284 284 284 283 283 283 283 283 282 282 282 282 281 281 280 280 279 279 279 279 279 279 278 278 278 278
168 176 188 198 204 207 208 216 223 229 237 247 260 274 284 290 293 294 293 291 290 291 293 296 297 297 297 300 305 310 310 306 300 296 295 295 296 297 298 299 298 297 297 296 295 294 294 293 293 292 292 290 289 288 288 287 287 286 286 286 285 284 284 284 284 284 284 284 284 283 283 282 282 281 281 281 280 280 279 279 279 279 279 279 278 278
171 172 177 190 198 200 196 204 218 230 240 253 267 279 287 295 299 299 296 293 292 294 299 303 304 305 305 307 311 314 314 307 299 295 296 299 302 303 304 304 304 304 303 302 301 300 299 299 298 297 296 294 292 290 289 288 287 287 286 286 285 285 285 285 285 286 286 286 286 285 285 284 283 283 282 281 281 281 280 280 280 280 280 279 279 278
166 174 176 182 194 201 202 205 218 237 252 268 278 284 287 293 299 303 304 302 302 304 308 309 309 308 310 313 316 318 315 308 300 295 295 298 301 304 306 307 307 308 308 308 308 307 306 306 305 304 302 299 296 294 292 291 290 289 288 288 287 288 288 288 288 288 288 287 287 287 286 285 284 284 283 283 282 282 282 281 281 281 280 280 280 279
164 175 181 186 193 201 209 218 232 249 266 278 287 290 289 294 302 305 304 305 308 311 314 313 311 310 311 315 318 319 316 311 307 305 305 306 307 309 312 313 314 314 315 314 314 313 313 312 311 309 307 304 302 300 298 297 296 295 294 293 293 294 294 293 293 292 290 290 289 289 287 287 286 285 284 284 283 283 283 282 282 282 281 281 280 280
192 192 195 201 206 212 218 231 246 260 272 281 287 290 294 303 311 310 304 303 308 313 316 314 312 311 313 317 318 317 314 311 310 311 311 312 314 316 318 318 319 320 320 319 318 318 318 317 315 313 311 309 308 306 305 304 303 302 302 301 300 299 297 296 295 293 292 291 291 290 289 288 287 286 285 285 285 284 284 283 283 283 282 281 281 281
211 212 212 214 217 223 233 246 260 270 277 285 292 298 304 312 315 312 304 303 308 313 314 312 312 313 316 319 319 313 309 309 310 312 314 315 317 319 320 319 319 319 320 319 318 319 320 319 317 316 315 313 312 312 311 310 309 307 305 303 301 299 297 296 295 294 293 292 292 291 290 289 288 287 287 286 286 285 285 284 284 283 283 282 282 281
221 223 223 224 227 233 246 261 273 280 287 295 303 310 314 314 313 309 305 304 309 313 314 313 314 315 317 319 317 311 307 308 311 314 315 315 317 319 320 317 316 317 318 316 315 317 320 319 317 316 316 316 315 315 313 311 309 306 303 301 299 298 297 296 295 295 294 293 293 292 291 290 290 289 288 287 287 286 286 285 285 284 284 283 283 282
231 234 237 243 247 253 262 275 283 288 295 302 307 310 309 307 307 307 305 306 310 313 315 318 319 319 318 319 317 312 309 311 314 315 314 313 314 318 318 316 313 313 313 312 313 315 317 317 316 316 315 315 314 314 311 309 306 303 301 299 299 298 297 297 296 296 295 294 294 293 293 292 291 290 289 288 288 287 287 287 286 286 285 284 284 284
237 241 246 255 264 269 275 283 289 294 299 302 304 305 304 303 303 303 303 304 308 311 315 319 320 318 316 314 312 311 315 316 315 314 311 308 310 314 316 313 310 309 310 310 311 313 315 315 314 314 314 313 313 311 309 307 305 304 302 301 300 299 299 298 298 297 296 296 295 295 294 293 292 291 291 290 290 289 289 288 287 287 286 286 285 285
241 247 254 261 269 276 281 285 289 292 295 296 298 299 300 300 299 298 297 299 302 306 309 311 308 304 304 306 305 308 316 315 313 310 308 305 306 311 314 311 308 307 307 308 310 312 313 313 313 313 312 312 311 310 309 308 307 306 305 304 302 300 300 299 298 298 297 297 297 296 295 295 294 293 292 292 291 291 290 289 289 288 287 287 286 285
246 252 257 261 267 273 277 279 283 285 286 289 293 295 295 294 293 292 292 293 296 298 300 300 296 293 292 292 296 303 311 312 310 307 305 302 304 307 312 311 308 306 306 306 308 311 312 313 313 314 313 312 312 312 311 311 309 308 306 305 303 302 301 301 300 299 299 298 298 297 297 296 295 294 293 293 292 291 291 290 289 289 288 287 287 286
253 257 260 264 267 269 270 275 279 281 284 290 293 292 289 290 289 289 290 292 293 292 292 289 286 285 287 289 294 302 308 310 308 305 303 301 302 305 309 310 309 307 306 306 309 312 313 313 313 314 314 314 313 312 312 311 309 308 307 306 305 304 303 302 301 301 300 299 298 298 297 296 295 294 294 293 292 292 291 290 290 289 289 288 287 287
262 266 269 272 271 270 272 278 281 283 287 290 288 285 284 286 287 289 291 292 291 289 286 281 279 282 286 288 293 299 305 307 306 304 303 302 301 303 308 310 310 308 306 307 310 313 313 312 312 312 312 312 312 311 310 310 309 308 308 307 307 306 305 304 303 302 301 300 299 297 297 296 295 294 294 293 292 292 291 291 291 290 289 289 288 287
277 280 279 280 279 278 278 280 282 285 286 285 281 277 279 283 286 289 291 291 288 284 281 278 280 283 286 287 291 298 305 306 303 301 302 301 299 301 308 311 311 309 307 308 310 313 313 311 310 309 310 309 308 308 308 308 308 308 308 308 307 306 305 304 303 302 300 299 298 297 296 295 295 294 294 293 293 292 292 291 291 290 289 289 288 287
281 284 285 284 283 282 282 284 285 284 282 278 275 274 277 281 285 288 289 290 288 286 285 286 288 290 290 291 295 300 304 303 300 298 298 295 295 300 307 312 312 309 306 307 311 313 312 310 308 308 308 308 308 307 307 307 307 307 306 306 305 305 304 303 302 300 299 298 297 296 296 295 295 294 294 293 293 292 292 291 291 290 290 289 288 288
281 283 284 284 283 282 281 280 279 278 275 272 272 276 282 287 291 294 295 296 296 296 296 296 296 295 294 295 297 298 298 297 295 294 293 289 292 297 305 311 312 309 306 308 311 312 311 308 307 306 307 307 307 307 308 307 306 305 304 304 303 303 302 300 300 299 298 297 296 296 295 295 294 294 293 293 293 292 292 291 291 290 290 289 288 288
283 284 285 286 285 282 279 276 273 271 271 272 275 283 293 298 300 299 298 298 298 298 298 299 297 295 295 296 295 294 294 293 291 290 289 290 292 296 302 309 310 308 306 309 311 311 309 307 306 306 306 307 308 309 309 309 307 305 303 303 302 302 301 300 299 298 297 297 296 295 295 294 294 294 293 293 292 292 291 291 291 290 289 289 288 288
281 282 284 287 286 283 278 273 270 268 270 273 279 289 299 300 298 295 292 291 292 294 296 296 294 292 293 295 294 293 294 295 293 290 288 289 292 296 302 308 310 309 308 309 310 311 309 305 304 305 306 307 309 311 312 311 310 307 305 304 303 302 301 300 299 298 297 296 296 295 294 294 293 293 293 292 292 291 291 291 290 290 290 290 289 288
278 277 278 280 281 276 270 266 265 265 268 270 276 284 290 291 292 292 290 287 287 289 291 290 290 291 293 293 291 292 296 296 294 290 287 286 289 294 301 307 311 310 309 309 309 309 307 303 302 303 305 308 312 314 315 313 311 309 306 305 303 302 301 300 299 299 298 297 296 295 294 294 294 293 292 292 292 291 291 291 291 290 291 291 290 289
278 274 269 269 268 266 263 262 263 266 269 273 278 282 283 285 287 288 285 285 286 285 280 279 283 288 292 292 293 295 297 295 292 290 290 288 287 291 300 308 312 312 311 310 309 308 305 302 302 304 307 311 314 315 315 313 311 309 307 305 304 303 302 301 301 300 300 298 297 296 295 295 294 294 293 293 292 292 292 291 292 292 292 291 290 289
275 269 263 261 260 262 264 265 267 269 272 275 279 281 281 281 281 281 282 284 284 280 274 273 276 281 287 292 295 297 297 293 291 294 301 299 294 295 303 309 312 314 315 314 313 311 307 303 304 307 311 314 315 314 314 313 311 309 308 307 306 305 303 302 301 301 302 300 299 298 297 296 295 295 294 294 293 293 292 292 293 293 292 290 289 287
274 265 260 259 259 261 263 267 269 271 273 276 279 281 281 281 281 280 281 281 279 275 273 272 275 280 287 294 299 299 296 293 298 312 316 312 304 301 307 310 311 314 318 319 319 315 311 309 309 311 314 315 314 313 313 312 312 311 310 309 308 307 305 305 303 302 302 301 300 299 298 297 296 295 295 294 293 293 292 292 293 292 291 290 288 287
282 274 269 268 268 268 271 274 277 279 282 285 287 287 285 283 280 277 274 273 272 274 276 276 278 281 285 292 296 297 291 295 305 317 320 313 304 302 307 308 309 311 316 318 320 317 313 312 312 313 315 315 313 312 312 312 311 310 310 309 308 307 307 306 305 304 303 302 300 300 299 298 297 296 295 294 293 293 292 292 292 291 290 289 288 286
287 283 281 282 283 285 288 291 293 295 296 296 294 290 283 277 272 269 267 268 270 274 278 280 281 282 281 278 275 273 279 288 297 307 312 306 301 300 304 305 305 307 310 309 303 297 302 306 309 311 313 312 312 311 310 310 310 309 310 309 308 307 307 308 307 305 304 303 302 301 300 299 298 297 295 295 294 293 293 292 291 290 289 288 286 286
284 284 285 286 288 291 295 298 300 300 298 296 290 283 274 268 264 263 264 267 271 275 279 282 283 283 281 276 273 273 277 282 288 296 301 300 299 299 301 302 303 305 307 305 299 292 289 292 301 307 309 309 309 309 309 309 309 309 309 309 308 307 308 308 308 307 305 304 304 303 302 300 299 297 296 295 294 293 292 292 290 289 288 286 285 285
279 280 281 283 286 291 295 297 298 297 294 288 281 275 269 265 263 263 265 268 272 275 278 281 282 282 281 280 278 277 278 280 285 292 296 297 297 297 299 300 301 304 306 305 303 298 293 293 297 303 306 307 307 307 306 307 308 308 308 308 307 307 308 308 308 306 305 305 304 303 302 301 299 298 297 295 294 293 292 291 290 288 286 285 284 285
275 275 277 281 287 292 296 298 297 294 288 281 276 275 274 272 271 271 272 273 275 277 278 279 279 279 278 278 279 279 280 282 288 295 298 296 294 295 296 297 299 302 304 303 303 302 300 298 299 301 304 306 306 306 306 307 307 308 308 307 306 306 306 306 306 305 304 303 302 301 301 300 299 298 296 295 294 293 292 291 290 288 286 284 283 282
268 271 277 284 290 295 298 298 296 292 286 281 281 282 284 284 285 285 285 285 284 284 283 281 279 278 278 276 276 277 281 288 295 301 301 297 294 292 292 292 295 298 300 300 300 300 300 300 301 302 303 303 305 306 307 308 309 308 307 307 306 305 304 304 303 303 302 301 300 300 299 299 298 297 296 295 294 293 292 291 290 288 287 285 282 280
269 276 284 290 294 297 297 295 292 289 287 288 290 291 292 294 295 296 296 296 294 292 289 286 284 282 282 283 283 285 288 295 301 305 304 302 297 292 287 288 292 294 294 295 296 297 298 300 302 303 302 301 302 304 307 310 310 309 307 307 306 305 304 303 302 301 300 298 298 298 298 298 297 296 295 295 294 294 292 291 290 289 287 285 283 280
281 286 290 293 295 294 292 290 288 288 290 293 296 297 299 300 301 301 302 301 299 296 293 291 291 290 291 292 293 295 297 301 304 306 308 306 302 295 288 288 290 292 291 289 290 293 295 298 301 303 303 302 301 302 304 307 308 308 307 306 305 304 302 302 301 301 299 298 297 297 297 296 296 295 295 295 295 295 293 292 291 290 289 287 285 282
285 287 290 291 292 290 288 285 286 289 293 296 299 301 303 303 303 303 302 301 299 297 296 297 298 299 299 300 300 300 302 304 306 310 312 311 308 302 295 290 289 290 291 289 287 288 290 291 294 296 300 301 302 302 303 304 305 305 306 307 306 304 302 302 301 300 298 297 296 296 296 296 296 295 294 295 295 294 293 293 292 292 291 290 288 286
281 283 286 288 289 288 285 285 287 291 295 298 300 303 304 305 305 304 303 302 300 299 300 302 303 304 304 304 304 304 305 307 311 314 316 315 313 308 301 295 291 290 291 290 288 286 285 287 289 292 294 297 299 301 302 302 302 303 305 306 305 303 303 302 301 300 298 296 295 295 296 296 296 295 294 294 293 293 292 292 292 291 291 290 288 287
278 281 284 286 287 287 285 285 288 291 293 296 299 302 305 308 309 309 309 307 305 304 305 308 309 309 307 306 307 309 312 315 317 319 318 317 315 311 305 299 295 292 291 290 289 288 285 287 289 292 295 296 297 298 298 298 298 300 301 300 299 299 301 301 300 299 298 297 296 295 295 296 296 296 295 294 293 292 292 291 291 291 290 287 285 283
276 278 281 284 285 284 283 284 285 287 290 293 298 303 308 312 314 314 314 313 313 313 315 318 319 318 317 316 315 315 318 320 321 320 318 317 315 311 306 302 299 296 293 290 289 289 289 290 292 294 295 296 297 296 295 295 296 297 296 295 297 299 301 301 300 300 298 297 297 297 296 296 296 296 296 295 294 294 293 291 290 289 288 286 283 280
274 275 278 280 281 280 279 280 281 285 289 293 299 305 311 314 314 314 313 314 315 318 321 323 324 321 317 313 313 316 318 318 318 317 316 316 314 311 308 305 303 301 298 293 292 293 294 295 294 293 293 294 293 292 292 293 295 296 295 294 296 299 300 301 302 302 301 299 298 297 297 296 296 297 297 296 295 295 293 292 290 288 286 284 281 279
270 272 274 275 276 276 277 279 282 286 290 295 301 307 312 315 314 312 311 312 316 320 323 326 325 321 313 309 310 314 316 317 316 316 316 316 315 312 310 307 305 304 301 297 295 297 299 298 295 293 293 292 290 289 289 290 292 294 294 294 294 292 292 295 299 301 301 300 299 298 298 297 298 299 299 297 296 295 294 292 290 288 285 283 281 279
266 269 272 275 278 280 283 285 287 289 291 296 302 309 314 316 314 311 311 314 318 322 326 329 326 320 311 309 312 315 316 317 317 317 317 317 315 313 311 308 307 305 303 300 298 296 296 296 295 295 294 292 288 286 285 287 290 292 293 294 293 291 290 293 296 298 299 299 299 299 300 300 301 301 300 299 297 296 294 293 291 289 287 285 282 279
263 269 275 281 285 287 289 290 290 290 292 297 303 310 314 316 315 313 314 317 320 323 326 327 323 314 309 310 312 315 316 317 318 318 318 318 317 315 312 310 309 307 305 303 301 298 294 291 291 293 294 292 289 285 283 285 287 289 291 294 295 295 295 296 296 296 296 297 299 301 302 303 304 302 300 299 298 297 295 292 290 288 287 286 283 281
265 273 280 285 288 290 290 289 289 290 294 299 304 310 314 315 315 315 317 320 322 323 324 323 318 310 306 307 310 312 314 315 316 317 318 318 317 316 314 313 312 310 308 305 304 301 296 291 289 289 288 288 287 287 286 286 286 287 289 293 295 296 296 297 297 298 298 298 299 301 304 305 305 303 301 300 299 298 296 294 291 288 287 285 284 282
267 274 280 285 287 288 288 287 289 292 297 302 305 309 312 314 315 316 319 321 323 323 321 319 314 309 306 305 307 309 311 311 313 314 316 317 316 316 316 315 315 314 311 308 305 301 297 293 289 285 281 279 280 283 286 287 286 286 288 291 294 295 295 297 298 300 300 300 300 301 303 304 304 303 302 301 299 298 297 295 294 292 289 286 284 283
266 271 277 281 283 284 284 288 293 298 303 305 306 308 311 313 315 316 318 321 322 320 318 315 311 308 306 306 307 310 311 310 311 312 314 316 316 317 317 318 318 317 315 313 309 305 301 296 292 286 282 275 273 276 281 284 286 288 289 291 293 295 296 298 300 301 302 302 302 302 302 302 300 299 299 298 297 296 296 296 295 294 292 289 286 284
262 266 271 274 277 279 284 293 300 304 306 305 304 305 308 312 315 317 319 319 318 317 314 311 308 306 305 305 308 310 311 311 311 312 314 315 316 317 318 320 321 321 319 317 315 312 310 306 301 295 289 281 275 274 278 283 288 292 293 294 295 296 297 298 300 302 303 304 304 303 303 301 299 297 295 294 294 294 296 296 296 295 295 293 291 288
259 262 266 268 271 278 287 296 303 305 304 302 301 301 304 308 312 314 315 315 315 314 311 308 305 302 303 305 308 310 310 310 310 311 313 314 316 316 317 320 322 323 321 319 318 317 315 313 309 305 302 295 287 282 282 286 292 296 298 297 298 298 298 299 301 302 303 304 304 303 302 301 300 298 296 294 294 295 296 296 296 296 296 296 295 293
Height
790 791 792 793 794 795 795 796 797 797 797 798 798 798 798 798 798 798 797 797 797 796 796 795 795 794 794 793 793 793 792 792 792 791 791 791 790 790 790 789 789 788 788 788 787 787 786 785 785 785 784 784 783 783 782 782 781 781 780 780 780 779 779 778 778 777 777 776 776 775 775 775 774 774 773 773 772 772 772 771 771 770 770 770 770 769
790 791 792 793 794 794 795 795 796 796 797 797 797 797 797 797 797 796 796 796 796 795 795 794 794 793 793 792 792 791 791 791 790 790 790 790 789 789 788 788 787 787 786 786 785 785 784 784 783 783 782 782 781 781 780 780 779 779 778 778 777 777 776 776 775 775 775 774 774 773 773 772 772 771 771 770 770 770 770 769 769 768 768 768 767 767
790 791 791 792 793 794 794 795 795 795 796 796 796 796 796 796 795 795 795 795 795 794 794 793 793 792 791 791 791 790 790 790 790 789 789 788 787 787 786 786 785 785 784 784 784 783 782 782 781 781 780 780 780 779 778 778 778 777 776 776 775 775 775 774 774 773 773 772 772 771 771 770 770 769 769 769 768 768 767 767 766 766 766 766 765 765
790 790 791 791 792 793 793 794 794 795 795 795 795 795 795 795 795 794 794 794 794 793 793 792 791 791 790 790 790 789 789 789 788 788 787 786 786 785 785 784 784 783 783 782 782 781 781 780 780 780 779 778 778 777 777 776 776 775 775 774 774 773 773 772 772 771 770 770 770 769 769 768 768 767 767 766 766 766 765 765 764 764 764 763 763 762
789 789 790 791 791 792 793 793 794 794 794 795 795 794 794 794 793 793 793 793 793 792 792 791 790 790 789 789 789 788 788 788 787 786 786 785 784 784 783 783 782 782 781 781 780 780 780 779 779 778 777 777 776 776 775 775 774 773 773 772 772 771 770 770 770 769 768 768 767 767 766 766 766 765 765 764 764 763 763 762 762 762 761 761 761 760
788 788 789 790 791 791 792 792 793 793 794 794 794 794 793 793 792 792 792 792 792 791 791 790 790 789 788 788 788 787 787 786 786 785 784 784 783 782 782 781 780 780 780 779 779 778 778 777 777 776 775 775 774 774 773 772 772 771 771 770 770 769 768 768 767 767 766 766 765 765 764 764 763 763 762 762 761 761 761 760 760 759 759 758 758 758
787 788 789 790 790 791 791 792 792 793 793 793 793 793 792 792 792 792 791 791 791 790 790 789 789 788 787 787 786 786 786 785 784 784 783 782 781 781 780 780 779 779 778 778 777 777 776 775 775 774 774 773 772 772 771 770 770 769 768 768 767 766 766 766 765 764 764 763 763 762 762 761 761 761 760 760 759 759 758 758 757 757 756 756 756 756
786 787 788 789 790 790 791 791 792 792 792 792 792 792 792 791 791 791 791 790 790 789 789 788 787 787 786 786 785 785 784 784 783 782 781 780 780 780 779 778 778 777 777 776 776 775 775 774 773 772 771 771 770 769 769 768 767 767 766 766 765 764 764 763 762 762 761 761 761 760 760 759 759 758 758 757 757 756 756 755 755 755 754 754 753 753
786 787 787 788 789 790 790 791 791 792 792 792 792 791 791 790 790 790 790 790 789 789 788 787 786 785 785 785 784 784 783 782 781 780 780 779 779 778 778 777 776 776 775 775 774 774 773 772 771 770 769 769 768 767 766 766 765 764 764 763 762 762 761 761 760 760 759 759 758 758 757 757 756 756 755 755 754 754 753 753 753 752 752 751 751 751
786 786 787 788 788 789 790 790 791 791 791 791 791 791 790 790 790 789 789 789 788 788 787 786 785 784 783 783 783 782 781 781 780 780 779 778 778 777 776 776 775 775 774 773 772 771 770 770 769 768 767 766 766 765 764 764 763 762 761 761 760 760 759 759 758 758 757 756 756 756 755 755 754 754 753 753 752 751 751 751 750 750 749 749 749 748
787 787 787 788 788 789 789 790 790 790 790 790 790 790 790 790 789 789 788 788 787 787 786 785 785 784 782 781 781 780 780 780 779 779 778 778 777 776 775 775 774 773 772 771 770 769 768 768 767 766 765 765 764 763 762 761 761 760 760 759 758 758 757 756 756 756 755 755 754 754 753 752 752 751 751 750 750 749 749 748 748 747 747 746 746 746
788 788 788 788 789 789 789 789 789 790 790 790 789 789 789 789 789 789 788 787 786 786 785 785 784 783 782 780 780 779 779 778 778 777 777 776 775 775 773 772 771 771 770 769 768 767 766 766 765 764 763 763 762 761 761 760 759 758 757 757 756 756 755 755 754 754 753 753 752 751 751 750 750 749 749 748 747 747 746 746 745 745 744 744 743 743
789 789 789 789 789 789 789 789 789 789 789 789 789 789 788 788 788 788 788 787 786 785 785 784 782 781 780 780 779 778 778 777 776 776 775 774 773 772 771 770 769 768 767 766 766 765 764 763 763 762 761 761 760 759 759 758 757 756 756 755 754 754 753 753 752 751 751 751 750 749 748 748 747 747 746 746 745 744 744 743 743 742 742 741 741 740
790 790 790 789 789 789 788 788 788 788 788 788 788 788 788 788 788 787 787 786 785 785 784 783 782 780 779 779 778 777 777 776 775 775 773 772 771 770 769 768 767 766 766 764 763 763 762 762 761 760 760 759 758 757 756 756 755 754 754 753 752 752 751 751 750 749 749 748 747 746 746 745 745 744 744 743 742 742 741 741 740 740 739 739 738 738
790 790 789 789 788 788 788 788 788 788 788 788 787 787 787 787 787 787 786 786 785 785 784 782 780 779 778 778 777 777 776 776 775 773 772 770 770 769 768 767 766 765 764 763 762 761 761 760 759 758 757 756 756 755 754 754 753 752 752 751 751 750 749 749 748 747 746 746 745 744 744 743 742 742 741 741 740 739 739 738 738 737 736 736 736 735
790 789 789 788 788 787 787 787 788 787 787 787 787 787 786 786 786 786 786 785 785 784 783 781 779 778 777 777 777 776 776 775 774 773 771 768 767 767 767 766 764 763 762 761 760 759 759 758 757 756 756 755 754 753 753 752 751 751 750 749 748 748 747 746 746 745 744 743 743 742 741 741 740 740 739 738 738 737 736 736 735 735 734 733 733 732
789 789 788 788 787 787 787 787 787 787 787 786 786 786 786 786 786 786 785 785 784 783 782 781 780 778 776 775 776 776 775 775 773 772 770 767 766 766 766 765 763 761 760 760 759 758 757 756 756 755 754 753 752 752 751 750 750 749 748 747 746 746 745 744 743 743 742 741 741 740 739 738 738 737 736 736 735 735 734 733 733 732 731 731 730 730
788 788 788 787 786 786 786 786 786 786 786 786 785 785 785 785 785 785 785 784 784 782 781 781 780 779 778 776 775 775 775 774 773 771 769 767 765 764 764 764 762 761 759 758 757 757 756 755 754 753 752 751 751 750 749 748 748 747 746 745 744 744 743 742 741 741 740 739 738 738 737 736 736 735 734 734 733 732 732 731 730 730 729 728 728 727
787 787 787 786 786 785 785 786 786 786 785 785 785 785 785 785 785 785 784 783 782 782 781 780 780 779 778 776 775 774 775 774 772 770 768 766 764 763 763 762 761 759 758 757 756 755 755 754 753 752 751 750 749 748 747 746 746 745 744 743 743 742 741 740 739 738 738 737 736 736 735 734 734 733 732 731 731 730 729 729 728 727 726 726 725 724
786 786 786 786 785 785 785 785 785 785 785 785 785 785 784 784 784 783 783 782 781 780 780 780 779 778 777 775 774 773 773 773 771 770 768 765 763 762 761 761 760 758 756 755 754 754 753 752 751 750 749 748 747 746 746 745 744 743 742 741 741 740 739 738 737 736 736 735 734 734 733 732 731 731 730 729 728 728 727 726 726 725 724 723 722 721
786 785 785 785 785 785 784 784 784 784 784 784 784 784 783 783 783 782 781 780 780 779 779 778 777 776 775 774 773 772 772 772 771 769 767 764 762 761 761 760 759 757 755 753 753 752 751 750 749 748 747 746 746 745 744 743 742 742 741 740 739 738 737 736 735 735 734 733 732 732 731 730 730 729 728 727 726 725 725 724 723 722 721 720 719 719
785 785 785 785 784 784 784 784 784 784 784 784 783 783 782 782 781 780 780 779 779 778 777 777 776 775 775 773 772 772 771 771 770 769 767 764 761 759 759 759 757 756 754 752 751 751 750 749 747 746 746 745 744 743 743 742 741 740 739 738 737 736 735 734 733 733 732 731 731 730 729 728 727 726 726 725 724 723 722 721 720 719 718 717 716 716
784 784 784 784 784 783 783 783 783 783 783 782 782 782 781 781 780 779 779 778 777 777 776 776 775 774 773 772 771 770 770 770 769 768 767 764 760 758 758 758 756 755 753 751 750 749 748 747 746 745 744 743 742 742 741 740 739 738 737 736 735 734 733 732 732 731 730 729 729 728 727 726 725 724 723 722 721 721 720 719 718 716 716 715 714 712
784 783 783 783 783 783 782 782 782 782 781 781 781 780 780 780 779 778 778 777 777 776 775 775 774 773 772 771 770 770 769 769 768 768 766 763 760 757 757 757 756 754 751 750 749 748 746 745 744 743 742 741 741 740 739 738 737 736 735 734 733 732 732 731 730 729 728 727 726 726 725 724 723 722 721 720 719 718 717 716 715 714 713 712 711 710
783 783 783 782 782 782 781 781 781 780 780 780 780 779 779 778 778 777 777 777 776 776 775 774 773 771 770 770 769 769 768 768 767 767 766 763 759 757 756 756 755 753 751 749 748 747 746 743 742 741 741 740 739 738 737 736 735 734 734 733 732 731 730 729 728 727 726 726 725 724 723 722 721 720 719 718 717 716 715 713 712 711 710 709 707 706
782 782 782 782 781 781 780 780 780 780 779 779 778 778 778 777 777 777 776 776 775 775 775 773 772 770 770 769 768 767 767 766 766 766 765 762 759 756 756 756 755 753 750 748 747 746 745 742 740 739 739 738 737 736 735 734 734 733 732 731 730 729 728 727 726 725 724 723 722 721 720 719 718 717 716 716 714 713 712 711 710 709 707 706 705 703
782 781 781 781 780 780 780 779 779 778 778 778 778 778 777 777 776 775 775 775 775 775 774 773 771 770 769 768 767 766 766 765 765 764 763 762 759 756 755 755 754 753 750 748 746 745 744 741 739 737 737 736 735 734 733 733 732 731 730 729 728 727 726 725 724 723 722 721 720 719 718 717 716 715 714 713 712 711 710 709 707 706 705 703 702 700
780 780 780 780 779 779 778 778 777 777 777 777 777 777 776 776 775 775 774 774 774 774 773 772 771 769 768 766 766 765 765 764 763 762 762 761 759 757 755 754 754 753 751 747 745 743 742 740 738 736 735 734 733 733 732 731 730 729 728 727 726 725 724 723 722 721 720 719 718 717 716 715 714 713 712 711 710 708 707 706 705 704 702 701 699 697
779 779 779 778 778 777 777 777 776 776 776 776 776 775 775 775 774 774 773 773 773 772 771 770 770 769 767 766 765 764 763 762 762 761 761 760 758 756 755 754 753 752 751 747 743 740 739 738 737 736 734 733 732 731 730 729 728 727 726 725 724 723 722 721 720 719 718 716 716 715 713 712 711 710 709 708 707 706 705 704 703 701 700 698 696 694
778 778 777 777 777 776 776 776 775 775 775 775 775 774 774 774 773 772 772 772 771 771 770 769 769 768 767 766 764 762 761 761 761 761 760 759 757 756 755 754 753 752 751 749 744 739 736 735 735 735 733 732 731 730 728 727 726 725 724 722 721 721 720 719 718 716 716 714 713 712 711 710 709 708 707 706 704 703 702 701 701 699 697 695 693 691
777 776 776 776 775 775 775 775 774 774 774 773 773 773 772 772 772 771 771 770 770 770 769 768 768 767 766 766 764 762 760 760 760 760 760 759 757 755 754 753 752 751 751 751 748 743 736 732 731 732 732 731 730 728 727 726 725 724 722 721 720 719 718 717 716 715 713 712 711 710 709 708 706 705 704 703 702 701 700 699 698 697 695 693 691 688
775 775 775 775 774 774 774 773 773 773 772 772 771 771 771 771 770 770 770 769 769 768 768 767 766 766 766 765 764 762 760 759 760 760 760 759 756 755 754 753 752 751 751 751 750 748 742 735 731 730 731 730 729 727 726 725 724 722 721 720 718 717 716 715 714 713 711 710 709 707 706 705 704 703 701 700 699 698 697 696 696 695 693 691 688 686
775 774 774 774 774 773 773 772 772 771 771 770 770 770 770 770 769 769 769 768 768 767 767 766 766 765 764 764 763 761 760 759 759 759 759 758 756 754 753 752 751 750 749 749 748 747 745 740 735 731 729 728 728 726 725 724 722 721 721 719 717 715 714 713 712 711 709 708 706 705 704 702 701 700 699 698 696 696 695 694 693 692 691 689 686 684
773 773 773 773 772 772 772 771 771 770 770 769 769 769 769 768 768 768 767 767 767 766 766 765 765 764 763 762 761 760 758 758 758 758 758 757 756 754 752 752 751 749 748 747 746 745 743 740 737 733 730 727 726 725 724 723 721 720 719 718 716 715 713 712 711 709 707 706 705 703 701 700 699 697 696 695 694 693 692 691 690 689 689 687 685 682
772 772 772 772 771 771 770 770 770 769 769 768 768 768 767 767 767 766 766 766 765 765 764 764 763 763 762 761 760 758 757 756 757 757 757 756 756 754 752 751 750 749 748 746 745 743 741 738 736 735 731 727 724 723 723 722 721 719 718 717 716 714 712 711 710 708 706 704 703 701 699 698 696 695 694 692 691 690 689 688 687 686 686 685 683 681
771 771 771 770 770 770 769 769 768 768 768 767 767 767 766 766 766 765 765 764 764 763 763 762 762 761 761 760 759 757 756 755 756 756 756 755 754 753 751 750 749 748 747 746 744 742 740 737 735 733 732 728 724 721 720 719 719 718 716 716 714 713 711 710 709 707 705 703 701 699 698 696 695 693 691 690 689 687 686 685 684 683 682 681 680 678
770 770 770 769 769 769 768 767 767 767 767 766 766 766 765 765 764 764 763 763 762 762 761 761 760 760 759 758 757 756 755 754 754 754 754 754 753 752 751 749 748 747 747 745 743 741 740 737 734 731 730 728 726 722 719 717 716 716 715 714 713 711 710 709 707 706 704 702 700 698 696 695 693 691 689 687 686 685 683 682 681 679 678 677 675 674
769 769 768 768 768 767 767 766 766 766 766 765 765 764 764 763 763 762 762 761 761 761 760 759 759 758 758 757 756 755 754 754 753 752 752 752 751 751 750 748 747 746 746 745 743 741 739 737 734 731 728 726 724 722 720 718 716 714 712 712 711 710 709 707 706 705 703 701 698 696 694 693 691 689 687 685 684 682 680 678 677 676 675 673 671 669
768 768 767 767 767 766 766 766 765 765 765 764 764 763 763 762 761 761 761 760 760 759 759 758 757 756 756 756 755 754 753 752 752 751 751 750 750 749 748 747 746 745 744 743 742 741 739 737 735 732 729 726 723 721 719 718 717 714 712 710 708 707 707 706 705 703 701 699 696 694 692 690 689 687 685 683 681 680 678 676 674 673 671 670 667 664
767 766 766 766 766 765 765 764 764 764 763 763 762 762 761 761 761 760 759 759 758 758 757 757 756 755 755 754 753 753 752 751 751 750 749 749 748 748 747 746 744 743 742 741 741 740 738 736 734 732 730 727 724 721 718 717 716 714 713 710 706 704 704 704 703 701 699 697 695 693 690 688 686 685 683 681 680 678 676 674 671 670 669 667 665 661
766 765 765 765 764 764 764 763 763 763 762 762 761 761 761 760 759 759 758 757 757 756 756 756 755 754 753 752 752 751 751 750 749 749 748 748 747 746 746 744 743 742 741 740 739 738 737 735 733 731 729 727 724 721 718 716 715 714 713 711 707 703 702 701 701 699 697 695 693 691 689 686 684 682 681 679 677 676 674 672 670 667 666 664 662 660
765 764 764 763 763 763 763 762 762 762 761 761 761 760 760 759 758 758 757 756 756 755 755 754 753 752 751 750 750 750 749 749 748 747 747 746 746 745 744 743 742 741 740 739 737 736 735 734 733 731 728 726 724 721 717 715 713 713 712 710 706 703 700 698 697 697 696 693 691 689 687 685 682 680 678 676 674 672 671 669 667 665 663 661 659 656
763 763 762 762 762 762 762 761 761 761 761 760 760 759 759 758 758 757 756 755 755 754 754 753 752 751 750 749 748 748 748 747 747 746 746 745 744 744 743 742 741 740 739 738 736 735 734 733 731 730 728 726 724 721 717 713 711 710 710 708 706 704 699 695 694 694 693 691 689 687 685 683 681 678 676 674 671 669 668 666 664 662 660 658 655 652
762 762 761 761 761 761 761 760 760 760 760 759 759 758 758 757 757 756 755 755 754 753 753 752 751 750 749 748 747 747 746 746 746 745 745 744 743 742 742 741 740 739 738 737 736 734 732 731 729 728 726 725 723 720 716 713 710 708 707 706 706 704 700 696 693 691 690 688 686 685 683 681 679 676 673 671 669 666 665 662 660 658 656 653 651 648
761 761 760 760 760 760 759 759 759 759 758 758 758 757 757 756 756 755 755 754 753 752 752 751 751 750 749 747 746 746 745 744 744 744 743 743 742 741 741 740 739 738 737 736 735 734 732 730 727 726 724 723 721 719 716 712 710 707 705 704 703 701 698 695 693 691 688 686 683 682 681 680 677 675 671 668 665 663 661 659 656 654 651 649 646 644
760 760 759 759 759 759 758 758 758 758 757 757 757 756 756 756 755 754 754 753 752 751 751 751 750 749 748 747 746 745 744 743 742 742 741 741 741 740 739 739 738 737 736 735 733 732 731 729 727 725 722 721 718 716 714 712 709 706 703 701 700 698 696 693 691 689 687 684 682 680 678 677 676 673 669 665 662 659 657 655 653 650 647 644 642 639
759 758 758 758 758 758 757 757 757 757 756 756 756 756 755 755 754 753 753 752 752 751 750 750 750 749 748 747 746 745 743 742 741 740 740 739 739 738 738 737 736 735 734 733 731 730 729 727 726 724 722 720 716 713 710 709 708 706 703 700 698 696 693 691 688 687 685 683 681 678 677 676 674 671 667 663 659 655 652 650 648 646 644 641 638 634
758 757 757 757 757 757 756 756 756 756 756 755 755 755 754 754 753 753 752 751 751 751 750 749 749 748 747 746 745 744 743 742 741 740 739 738 737 736 736 735 734 733 732 731 729 728 726 725 723 722 721 719 716 711 708 706 705 704 702 700 697 695 691 688 686 684 683 681 679 677 676 675 672 669 665 661 656 652 648 645 643 641 640 637 634 631
756 756 756 756 756 756 756 756 756 755 755 754 754 754 753 753 753 752 751 751 750 750 749 749 748 747 746 745 744 743 742 741 740 739 738 737 736 735 734 733 732 731 729 728 726 725 723 722 721 720 719 717 715 711 707 704 703 702 701 699 696 693 690 686 684 682 681 679 677 675 674 673 671 669 666 661 655 650 645 641 638 636 634 632 630 627
756 756 756 756 755 755 755 755 755 754 754 754 753 753 752 752 752 751 751 750 750 749 749 748 747 746 745 744 743 742 742 741 739 738 737 736 735 734 732 731 730 729 727 725 724 722 721 719 717 716 716 715 713 711 707 704 701 700 698 696 695 692 689 686 682 680 679 677 675 673 671 670 668 666 664 660 655 649 643 638 634 630 628 627 626 623
755 755 755 755 754 754 754 754 754 754 753 753 752 752 752 751 751 751 750 750 749 748 748 747 747 746 745 743 742 742 741 740 739 737 736 735 734 733 732 731 730 728 726 724 722 720 719 716 714 713 712 712 712 710 708 704 701 698 696 694 692 691 688 685 681 679 677 676 673 671 669 667 665 663 661 658 654 648 641 636 630 626 623 623 621 619